This is the latest recevied weather packets stored in our database for station/object KE6YLF. If no packets are shown the sender has not sent any weather packets the latest 10 day(s).
| Time | Temp. | Humidity | Pressure | Rain* | Wind** | Luminosity | Snow |
|---|---|---|---|---|---|---|---|
| 1778367631 | 38.89° C | 14% | 1071.5 hPa | 0 mm | - | - | - |
| 1778367326 | 38.33° C | 14% | 1071.8 hPa | 0 mm | - | - | - |
| 1778367022 | 39.44° C | 13% | 1071.8 hPa | 0 mm | - | - | - |
| 1778366718 | 38.33° C | 14% | 1071.8 hPa | 0 mm | - | - | - |
| 1778366414 | 38.89° C | 13% | 1072 hPa | 0 mm | - | - | - |
| 1778366112 | 38.89° C | 14% | 1072 hPa | 0 mm | - | - | - |
| 1778365810 | 38.33° C | 14% | 1072 hPa | 0 mm | - | - | - |
| 1778365505 | 38.33° C | 14% | 1072 hPa | 0 mm | - | - | - |
| 1778365201 | 38.33° C | 14% | 1072.1 hPa | 0 mm | - | - | - |
| 1778364897 | 38.33° C | 14% | 1072.1 hPa | 0 mm | - | - | - |
| 1778364593 | 37.78° C | 14% | 1072.2 hPa | 0 mm | - | - | - |
| 1778364289 | 38.33° C | 14% | 1072.3 hPa | 0 mm | - | - | - |
| 1778363985 | 38.33° C | 14% | 1072.3 hPa | 0 mm | - | - | - |
| 1778363681 | 38.33° C | 14% | 1072.3 hPa | 0 mm | - | - | - |
| 1778363379 | 37.78° C | 14% | 1072.5 hPa | 0 mm | - | - | - |
| 1778363075 | 38.33° C | 14% | 1072.5 hPa | 0 mm | - | - | - |
| 1778362772 | 38.33° C | 14% | 1072.7 hPa | 0 mm | - | - | - |
| 1778362468 | 38.89° C | 14% | 1072.9 hPa | 0 mm | - | - | - |
| 1778362166 | 38.89° C | 14% | 1072.7 hPa | 0 mm | - | - | - |
| 1778361863 | 37.78° C | 14% | 1073.1 hPa | 0 mm | - | - | - |
| 1778361559 | 38.33° C | 14% | 1073.1 hPa | 0 mm | - | - | - |
| 1778361255 | 38.33° C | 14% | 1073 hPa | 0 mm | - | - | - |
| 1778360951 | 38.89° C | 14% | 1073.1 hPa | 0 mm | - | - | - |
| 1778360649 | 38.33° C | 14% | 1073.1 hPa | 0 mm | - | - | - |
| 1778360344 | 38.33° C | 14% | 1073.4 hPa | 0 mm | - | - | - |
* Rain latest hour (hover to see other rain measurements)
** Current wind speed in m/s (hover to see current wind gust speed)